Location: Ceske Budejovice
(48.9830°N, 14.4670°E)
Time: 01:49:41
(UTC+02:00)

ISS - Visible Passes

Search period start: 21 May 2019 00:00
Search period end: 31 May 2019 00:00
Orbit: 407 x 410 km, 51.6° (Epoch: 21 May)

Date Brightness Start Highest point End Pass type
(mag) Time Alt. Az. Time Alt. Az. Time Alt. Az.
21 May -3.0 00:25:25 10° WNW 00:28:39 51° N 00:31:55 10° E visible
21 May -3.3 02:02:04 10° WNW 02:04:32 46° W 02:04:32 46° W visible
21 May-0.403:46:09SSE03:46:09SSE03:37:08WNWvisible
21 May -3.9 21:57:37 10° WSW 22:00:55 78° SSE 22:04:13 10° ENE visible
21 May -3.0 23:34:23 10° W 23:37:38 51° N 23:40:53 10° ENE visible
22 May -3.7 01:11:07 10° WNW 01:14:14 72° NNW 01:14:14 72° NNW visible
22 May -3.1 22:43:20 10° W 22:46:36 56° N 22:49:52 10° ENE visible
23 May -3.3 00:20:09 10° WNW 00:23:26 61° NNE 00:24:32 36° ENE visible
23 May -1.3 01:56:48 10° WNW 01:57:13 13° W 01:57:13 13° W visible
23 May -3.4 21:52:17 10° W 21:55:34 68° NNW 21:58:52 10° ENE visible
23 May -3.1 23:29:09 10° WNW 23:32:23 53° N 23:34:58 15° E visible
24 May -2.5 01:05:46 10° WNW 01:07:41 31° W 01:07:41 31° W visible
24 May -2.9 22:38:05 10° WNW 22:41:20 51° N 22:44:35 10° ENE visible
25 May -3.9 00:14:47 10° WNW 00:18:06 88° NNE 00:18:13 83° E visible
25 May -3.0 21:47:00 10° W 21:50:15 53° N 21:53:31 10° ENE visible
25 May -3.5 23:23:47 10° WNW 23:27:05 67° NNE 23:28:46 26° E visible
26 May -1.6 01:00:29 10° W 01:01:29 17° W 01:01:29 17° W visible
26 May -3.2 22:32:46 10° WNW 22:36:01 56° N 22:39:17 10° E visible
27 May -3.3 00:09:23 10° WNW 00:12:04 46° WSW 00:12:04 46° WSW visible
27 May -3.0 21:41:41 10° WNW 21:44:56 51° N 21:48:10 10° E visible
27 May -3.9 23:18:20 10° WNW 23:21:39 79° SSW 23:22:41 40° ESE visible
28 May -3.7 22:27:18 10° WNW 22:30:37 76° NNE 22:33:19 14° ESE visible
29 May -2.2 00:04:06 10° W 00:06:02 24° WSW 00:06:02 24° WSW visible
29 May -3.3 21:36:15 10° WNW 21:39:32 61° N 21:42:49 10° E visible
29 May -3.3 23:12:53 10° WNW 23:16:03 43° SSW 23:16:41 38° S visible
30 May -3.8 22:21:47 10° WNW 22:25:04 66° SSW 22:27:21 18° SE visible
